Jelicka, Босна и Херцеговина

21. јануар 2019, 19:08 CET (GMT +0100)
Banja Luka International | | Change Station

Надм.вис. 512 ft 44.78 °N, 17.22 °E | Updated 8 minutes ago

Облачно
Облачно
32 °F
Субјективни осећај 32 °F
С
2
Ветар Променљив Ветар из Северни

Данас
Макс. -- | Мин. -- °F
--% Вероватноћа за падавине
Јуче
Макс. -- | Мин. -- °F
Precip. -- инч
Притисак 30.09 инч
Видљивост 0.7 миља
Облаци Претежно облачно 300 ft
Облачно 1700 ft
Тачка росе 30 °F
Влажност ваздуха 93%
Киша 0.00 инч
Висина снега Није доступно.
7:22 AM 4:44 PM
Пун, 100% visible
METAR LQBK 211800Z 01002KT 1100 R17/1500N SN BR BKN003 OVC017 M00/M01 Q1019 NOSIG
Притисак 30.09 инч
Видљивост 0.7 миља
Облаци Претежно облачно 300 ft
Облачно 1700 ft
Тачка росе 30 °F
Влажност ваздуха 93%
Киша 0.00 инч
Висина снега Није доступно.
7:22 AM 4:44 PM
Пун, 100% visible
METAR LQBK 211800Z 01002KT 1100 R17/1500N SN BR BKN003 OVC017 M00/M01 Q1019 NOSIG

Get Severe Weather Alerts

Thanks for signing up!

Be on the lookout for a verification email in your inbox.

You'll start receiving the daily forecast at 6 AM.

×

10-Day Weather Forecast

No radar image for this location.
×

Almanac

Астрономија

Jan. 21, 2019 Излазак Залазак
Тренутно време
Цивилни сумрак
Наутички сумрак
Астрономски сумрак
Месец
Трајање видљиве светлости
Обданица
Tomorrow will be .
, % of the Moon is Illuminated

Данашњи екстреми

Највише Најниже

Community

Category 6

Welcome to Category 6. This is the collective home for Weather Underground's featured writeups by Dr. Jeff Masters (right), Bob Henson (left), Chris Burt, and other regular contributors.

Nearby

Квалитет ваздуха (AQ)

  Квалитет ваздуха (AQ) Индекс AQ Загађење
Not available.

Висина снега

станица Висина снега Висина

Земљотрес

Место Удаљеност Магнитуда Време и датум
Минимална магнитуда која се објављује је 2.5

Темп. воде у приобаљу

Место Температура

Stations

Оближње метео-станице

Локација станице Темп. Субјективни осећај Тачка росе Влажност ваздуха Ветар Precip. Надм.вис. Ажурирано Тип